[[{"header":{"parameterUnit":"m.s-1","parameterCategory":1,"la1":30.2991,"la2":30.254,"lo1":-89.0895,"lo2":-89.0444,"dx":0.0017,"dy":0.0017,"nx":28,"ny":28,"refTime":"2022-12-05T15:00:00:Z","depth":0,"parameterNumber":2,"parameterNumberName":"U-component_of_WINDS"},"data":[0,0,0,0,0,0,0,0,0,0,0,0,0,0,0,0,0,0,0,0,0,0,0,0,0,0,0,0,0,0,0,0,0,0,0,0,0,0,0,0,0,0,0,0,0,0,0,0,0,0,0,0,0,0,0,0,0,0,-0.7365,-0.7366,0,-0.7444,-0.7445,-0.7446,-0.7487,-0.7487,-0.7487,-0.7487,-0.7571,-0.7573,-0.7575,0,0,0,0,0,0,0,0,0,0,0,0,0,-0.725,-0.7252,-0.7365,-0.7366,-0.7367,-0.7444,-0.7445,-0.7446,-0.7487,-0.7487,-0.7487,-0.7487,-0.757,-0.7572,-0.7575,0,0,0,0,0,0,0,0,0,0,0,0,0,-0.7312,-0.7252,-0.7364,-0.7396,-0.74,-0.7444,-0.7445,-0.7447,-0.7487,-0.7487,-0.7487,-0.7487,-0.7569,-0.7572,-0.7575,-0.7595,0,0,-0.7586,-0.7587,0,0,0,0,0,0,0,0,-0.7308,-0.7316,-0.739,-0.7394,-0.7398,-0.7456,-0.7436,-0.7496,-0.7487,-0.7454,-0.7487,-0.7487,-0.7532,-0.7539,-0.7554,-0.7599,-0.7602,-0.7586,-0.7588,-0.7589,-0.759,0,0,0,0,0,0,0,-0.7304,-0.7313,-0.7396,-0.7391,-0.7396,-0.7407,-0.7416,-0.7447,-0.7492,-0.7457,-0.746,-0.7469,-0.7535,-0.755,-0.7556,-0.7604,-0.7586,-0.7589,-0.7591,-0.7592,-0.7669,-0.7669,0,0,0,0,0,0,-0.7294,-0.7309,-0.7394,-0.7399,-0.7352,-0.7409,-0.7419,-0.7437,-0.7492,-0.75,-0.7468,-0.747,-0.7545,-0.7552,-0.7559,-0.7585,-0.7589,-0.7592,-0.7594,-0.7669,-0.7669,-0.7669,0,0,0,0,0,0,-0.7291,-0.7301,-0.7391,-0.7355,-0.7367,-0.7411,-0.7431,-0.7439,-0.7455,-0.7501,-0.7509,-0.7476,-0.7545,-0.7554,-0.7586,-0.7589,-0.7594,-0.7597,-0.7669,-0.7669,-0.7669,-0.7638,0,0,0,0,0,0,-0.7288,-0.73,-0.7307,-0.7354,-0.7368,-0.7415,-0.7431,-0.744,-0.746,-0.7463,-0.751,-0.7518,-0.7546,-0.758,-0.7589,-0.7593,-0.7599,-0.7669,-0.7669,-0.7669,-0.7639,-0.7637,-0.7635,0,0,0,0,0,-0.7284,-0.7296,-0.7308,-0.7318,-0.7379,-0.7415,-0.7423,-0.7454,-0.746,-0.7468,-0.7498,-0.7517,-0.7587,-0.7583,-0.7593,-0.7599,-0.7669,-0.7669,-0.7669,-0.764,-0.7637,-0.7635,0,0,0,0,0,0,-0.7249,-0.7303,-0.7316,-0.7344,-0.7374,-0.7422,-0.7433,-0.7451,-0.7481,-0.7483,-0.7521,-0.7531,-0.7559,-0.7582,-0.7577,-0.762,-0.763,-0.7632,-0.7604,-0.7602,-0.7601,-0.7594,-0.7602,0,0,0,0,0,-0.7245,-0.7269,-0.7315,-0.7335,-0.735,-0.7389,-0.7406,-0.7427,-0.746,-0.7474,-0.7506,-0.7538,-0.7568,-0.7586,-0.7616,-0.7642,-0.7653,-0.7651,-0.7649,-0.7648,-0.7649,-0.7665,-0.7664,-0.7669,-0.7669,-0.7669,0,0,-0.7236,-0.7268,-0.7282,-0.7329,-0.7355,-0.738,-0.7399,-0.7425,-0.7444,-0.7478,-0.7509,-0.7534,-0.7572,-0.7601,-0.7615,-0.7621,-0.765,-0.7648,-0.7646,-0.7649,-0.7665,-0.7664,-0.7664,-0.7669,-0.7669,-0.7669,0,0,-0.7233,-0.726,-0.7279,-0.7305,-0.7344,-0.737,-0.7374,-0.7419,-0.7436,-0.7468,-0.7493,-0.7517,-0.7567,-0.7593,-0.7613,-0.7619,-0.7638,-0.7628,-0.7619,-0.7634,-0.7633,-0.7633,-0.7635,-0.7635,-0.7629,-0.7629,-0.7629,0,-0.7218,-0.7256,-0.7287,-0.7312,-0.7332,-0.7362,-0.7383,-0.7406,-0.7453,-0.7467,-0.7473,-0.7536,-0.7564,-0.7599,-0.76,-0.7616,-0.7622,-0.7623,-0.763,-0.7631,-0.7631,-0.7633,-0.7634,-0.7628,-0.7628,-0.7628,-0.7628,0,-0.7235,-0.7261,-0.7272,-0.7315,-0.7337,-0.7359,-0.7395,-0.7413,-0.7432,-0.7457,-0.7489,-0.7524,-0.7561,-0.7571,-0.759,-0.7609,-0.7611,-0.7623,-0.7633,-0.7628,-0.7631,-0.7633,-0.7626,-0.7626,-0.7627,-0.7627,0,0,-0.7213,-0.7273,-0.7276,-0.7296,-0.7341,-0.7362,-0.7386,-0.7421,-0.7436,-0.7467,-0.7488,-0.753,-0.7541,-0.7563,-0.7586,-0.7599,-0.7601,-0.761,-0.7611,-0.7607,-0.7624,-0.7614,-0.7615,-0.7614,-0.7614,-0.7614,-0.7621,0,-0.7216,-0.7259,-0.7288,-0.7319,-0.7344,-0.7373,-0.7394,-0.7424,-0.7448,-0.7473,-0.75,-0.7528,-0.7541,-0.7555,-0.7569,-0.7598,-0.7605,-0.7598,-0.7634,-0.7635,-0.7623,-0.7617,-0.7607,-0.7611,-0.7622,-0.7622,-0.7622,0,-0.7226,-0.7255,-0.7288,-0.733,-0.7342,-0.7359,-0.7394,-0.7417,-0.7452,-0.7469,-0.7493,-0.7516,-0.7543,-0.755,-0.7588,-0.7582,-0.7599,-0.7615,-0.7616,-0.7621,-0.7628,-0.7621,-0.7613,-0.7614,-0.7625,-0.7624,-0.7624,0,-0.7206,-0.7254,-0.728,-0.7296,-0.7346,-0.7358,-0.7379,-0.7414,-0.7433,-0.7464,-0.7477,-0.751,-0.7528,-0.7554,-0.7585,-0.7588,-0.762,-0.763,-0.7634,-0.7634,-0.764,-0.7639,-0.7634,-0.765,-0.765,-0.765,-0.765,0,-0.7207,-0.7226,-0.7272,-0.7288,-0.7311,-0.7344,-0.7366,-0.739,-0.7421,-0.7442,-0.747,-0.749,-0.753,-0.7555,-0.758,-0.7607,-0.7616,-0.763,-0.7636,-0.7628,-0.7626,-0.7639,-0.7639,-0.7651,-0.765,-0.765,-0.765,0,-0.7189,-0.722,-0.7251,-0.7294,-0.7306,-0.7321,-0.7359,-0.7376,-0.7401,-0.7428,-0.7437,-0.7477,-0.7507,-0.7541,-0.7584,-0.76,-0.7626,-0.7635,-0.7614,-0.7618,-0.762,-0.7619,-0.7624,-0.7626,-0.764,-0.764,-0.764,0,-0.7187,-0.7202,-0.7248,-0.7264,-0.7284,-0.7309,-0.7329,-0.7363,-0.7382,-0.7422,-0.7435,-0.7467,-0.7495,-0.7543,-0.7576,-0.7609,-0.7619,-0.7619,-0.7624,-0.7615,-0.7619,-0.7618,-0.7619,-0.7617,-0.7616,-0.7616,-0.7616,0,-0.7181,-0.7195,-0.7222,-0.7253,-0.7275,-0.7302,-0.7331,-0.7342,-0.7382,-0.7402,-0.7433,-0.7455,-0.7498,-0.753,-0.7566,-0.7589,-0.7609,-0.7614,-0.7617,-0.7608,-0.7595,-0.7602,-0.7609,-0.7614,-0.7614,-0.7614,-0.7614,-0.7614,-0.7171,-0.7186,-0.7219,-0.7248,-0.7272,-0.7298,-0.7316,-0.7343,-0.7369,-0.7406,-0.7425,-0.7456,-0.749,-0.7541,-0.7563,-0.7589,-0.7595,-0.7599,-0.76,-0.76,-0.7598,-0.759,-0.7595,-0.7596,-0.7596,-0.7596,-0.7596,0,-0.7166,-0.7189,-0.7214,-0.7252,-0.7275,-0.729,-0.7322,-0.734,-0.7367,-0.7397,-0.7424,-0.746,-0.7491,-0.7526,-0.756,-0.7573,-0.7583,-0.7581,-0.758,-0.7585,-0.7591,-0.7585,-0.7572,-0.7572,-0.7572,-0.7572,-0.7572,-0.7572,-0.7166,-0.7192,-0.721,-0.7248,-0.7272,-0.7301,-0.7318,-0.7342,-0.7366,-0.7405,-0.743,-0.7453,-0.7485,-0.7521,-0.7551,-0.756,-0.7571,-0.7566,-0.7579,-0.7583,-0.7585,-0.7587,-0.7581,-0.7568,-0.7568,-0.7571,-0.7571,-0.7571]},{"header":{"parameterUnit":"m.s-1","parameterCategory":1,"la1":30.2991,"la2":30.254,"lo1":-89.0895,"lo2":-89.0444,"dx":0.0017,"dy":0.0017,"nx":28,"ny":28,"refTime":"2022-12-05T15:00:00:Z","depth":0,"parameterNumber":3,"parameterNumberName":"V-component_of_WINDS"},"data":[0,0,0,0,0,0,0,0,0,0,0,0,0,0,0,0,0,0,0,0,0,0,0,0,0,0,0,0,0,0,0,0,0,0,0,0,0,0,0,0,0,0,0,0,0,0,0,0,0,0,0,0,0,0,0,0,0,0,2.5415,2.5415,0,2.5469,2.547,2.547,2.5485,2.5485,2.5485,2.5484,2.5543,2.5544,2.5546,0,0,0,0,0,0,0,0,0,0,0,0,0,2.5328,2.5329,2.5415,2.5415,2.5416,2.5469,2.547,2.547,2.5485,2.5485,2.5485,2.5484,2.5542,2.5544,2.5546,0,0,0,0,0,0,0,0,0,0,0,0,0,2.5372,2.533,2.5415,2.543,2.5432,2.5469,2.547,2.5471,2.5485,2.5485,2.5485,2.5484,2.5541,2.5544,2.5547,2.5573,0,0,2.5555,2.5556,0,0,0,0,0,0,0,0,2.537,2.5375,2.5427,2.5429,2.5431,2.547,2.546,2.5505,2.5486,2.5465,2.5484,2.5484,2.5519,2.5523,2.5535,2.5576,2.5578,2.5555,2.5557,2.5558,2.5559,0,0,0,0,0,0,0,2.5367,2.5373,2.5436,2.5428,2.543,2.5435,2.5441,2.5469,2.5494,2.5467,2.5468,2.5474,2.552,2.5532,2.5536,2.5579,2.5555,2.5558,2.5559,2.556,2.5647,2.5648,0,0,0,0,0,0,2.536,2.537,2.5435,2.5438,2.5399,2.5437,2.5444,2.5458,2.5494,2.5499,2.5475,2.5475,2.5528,2.5533,2.5538,2.5573,2.5558,2.5561,2.5562,2.5646,2.5647,2.5648,0,0,0,0,0,0,2.5358,2.5366,2.5432,2.5405,2.5413,2.5439,2.5455,2.5459,2.5471,2.55,2.5504,2.5482,2.5527,2.5534,2.5565,2.5575,2.5562,2.5564,2.5645,2.5646,2.5647,2.5642,0,0,0,0,0,0,2.5356,2.5365,2.5374,2.5405,2.5415,2.5457,2.5456,2.5461,2.5476,2.5476,2.5508,2.5513,2.5528,2.556,2.5567,2.5579,2.5567,2.5645,2.5646,2.5647,2.5641,2.5642,2.5643,0,0,0,0,0,2.5353,2.5371,2.5375,2.5383,2.5427,2.5457,2.5463,2.5479,2.5476,2.5487,2.5505,2.5512,2.5573,2.5563,2.5571,2.5584,2.5644,2.5646,2.5647,2.564,2.5642,2.5643,0,0,0,0,0,0,2.5342,2.5375,2.538,2.5408,2.543,2.5459,2.5473,2.548,2.5503,2.5503,2.5523,2.553,2.5559,2.5574,2.5563,2.5612,2.5609,2.5612,2.5601,2.5603,2.5604,2.56,2.5569,0,0,0,0,0,2.5342,2.5363,2.5392,2.5414,2.5424,2.5447,2.546,2.5471,2.5495,2.5504,2.5525,2.5548,2.5573,2.5589,2.5613,2.5643,2.5652,2.5656,2.5657,2.5658,2.5661,2.568,2.5683,2.5652,2.5652,2.5652,0,0,2.5344,2.5365,2.5377,2.5412,2.543,2.5453,2.5454,2.5477,2.5495,2.5508,2.5538,2.5554,2.5581,2.5612,2.5627,2.5626,2.5671,2.566,2.566,2.5663,2.5682,2.5685,2.5687,2.5653,2.5653,2.5653,0,0,2.5359,2.5377,2.5398,2.5416,2.5443,2.5458,2.5463,2.5492,2.5503,2.5534,2.5544,2.5566,2.5607,2.5627,2.5643,2.5667,2.5675,2.5675,2.5681,2.57,2.5702,2.5705,2.5715,2.5718,2.5677,2.5677,2.5677,0,2.5359,2.5392,2.5408,2.5431,2.5447,2.5459,2.5482,2.5499,2.5533,2.5544,2.5542,2.5596,2.5615,2.5652,2.5658,2.567,2.5678,2.5671,2.57,2.5703,2.5705,2.5715,2.5719,2.5677,2.5677,2.5677,2.5677,0,2.539,2.5413,2.5427,2.5459,2.5477,2.5499,2.552,2.5536,2.5546,2.5562,2.5593,2.5617,2.5647,2.5657,2.5666,2.5696,2.5694,2.5696,2.5693,2.5708,2.5718,2.5722,2.5677,2.5677,2.5677,2.5677,0,0,2.5399,2.5441,2.5446,2.5461,2.5493,2.5512,2.5536,2.5565,2.5579,2.5602,2.5624,2.566,2.5662,2.568,2.5692,2.5708,2.5728,2.5709,2.571,2.5713,2.5764,2.5763,2.5767,2.5733,2.5734,2.5735,2.5763,0,2.5419,2.5462,2.5478,2.5513,2.5536,2.5549,2.557,2.5592,2.5608,2.5631,2.5649,2.5674,2.5675,2.5686,2.5702,2.5722,2.5739,2.572,2.5756,2.5757,2.5749,2.5772,2.5771,2.5796,2.5766,2.5767,2.5767,0,2.5448,2.5472,2.5509,2.5539,2.5549,2.5568,2.5597,2.5618,2.5644,2.5655,2.5675,2.5687,2.5714,2.5709,2.5749,2.5736,2.5751,2.5764,2.5765,2.577,2.5763,2.5779,2.5804,2.5808,2.5773,2.5773,2.5773,0,2.5452,2.5494,2.5522,2.5535,2.557,2.5583,2.5599,2.5625,2.5642,2.5668,2.5679,2.5708,2.5724,2.5747,2.5766,2.5761,2.5805,2.5801,2.5816,2.5816,2.5825,2.5824,2.5854,2.5833,2.5833,2.5833,2.5833,0,2.5474,2.5496,2.5524,2.5542,2.5569,2.5587,2.5614,2.563,2.5654,2.5676,2.5689,2.571,2.5734,2.5759,2.5774,2.5806,2.5813,2.5824,2.5828,2.5823,2.5822,2.5834,2.5833,2.5834,2.5834,2.5834,2.5834,0,2.5483,2.5503,2.5534,2.5566,2.5574,2.5593,2.562,2.5639,2.5655,2.5684,2.5691,2.5718,2.5748,2.577,2.5808,2.5819,2.5853,2.5857,2.5844,2.5846,2.586,2.5859,2.59,2.5907,2.588,2.588,2.5881,0,2.5496,2.5513,2.5547,2.5562,2.5578,2.5602,2.562,2.564,2.5658,2.5691,2.5705,2.5736,2.5761,2.5809,2.5833,2.5863,2.5868,2.5881,2.5873,2.5868,2.587,2.5869,2.5872,2.5882,2.5882,2.5882,2.5882,0,2.5516,2.5525,2.5549,2.5577,2.5598,2.5621,2.5645,2.5657,2.5681,2.5701,2.5731,2.5751,2.5791,2.5822,2.5855,2.5873,2.5882,2.5884,2.589,2.5885,2.5878,2.5884,2.5848,2.5883,2.5883,2.5883,2.5883,2.5883,2.5529,2.5546,2.5572,2.5599,2.5619,2.5641,2.566,2.568,2.5705,2.5738,2.5749,2.5781,2.5809,2.5854,2.5873,2.5899,2.5899,2.5906,2.5908,2.591,2.5911,2.5873,2.5905,2.5905,2.5905,2.5905,2.5905,0,2.5551,2.5569,2.5594,2.5626,2.5648,2.5654,2.5681,2.5699,2.5727,2.5752,2.5777,2.5813,2.5843,2.587,2.5902,2.5919,2.5924,2.5926,2.5926,2.593,2.5908,2.5901,2.5922,2.5922,2.5922,2.5922,2.5922,2.5922,2.5565,2.5595,2.5608,2.5648,2.5667,2.5697,2.5712,2.5734,2.5754,2.5793,2.5818,2.5835,2.5862,2.5896,2.5925,2.5933,2.5945,2.5946,2.5955,2.5934,2.5932,2.593,2.5923,2.5948,2.5948,2.5975,2.5975,2.5975]}]]